Terug naar catalogus

DELTA 1 DEB

ActiefPO
NORAD 7958·DEBRIS·🇺🇸 United States

Gelanceerd Jul 23, 1972 vanaf Vandenberg Space Force Base

Loading…

Volgende Passages (komende 24 uur)

TLE

VersSource: Space-Track

Epoch: Sep 13, 2026, 23:28 UTC

1 07958U 72058CN  26256.97793175  .00000653  00000-0  29984-3 0  9999
2 07958  97.6541  86.3915 0295908 225.7546 131.8989 14.03313788718721

Volg DELTA 1 DEB in realtime met AllMySat

Download on the App Store